This demonstration page uses our WeatherBlox Daily Observations layout. Learn more.

Left ArrowRight Arrow

47.50024, -111.30081

Hourly Observations for October 4, 2022

Temp ( °F °C ) Dew Point ( °F °C ) Humidity (%) Winds ( mph kmh ) Pressure ( in mb ) Visibility ( mi km ) Precip ( " mm )
12:53 am 00:53 Clear 49 9.4 46 7.8 90 90 Calm 30.16 1021 10 16 0.00 0.00
1:53 am 01:53 Clear 47 8.3 44 6.7 90 90 Calm 30.16 1021 10 16 0.00 0.00
2:53 am 02:53 Clear 47 8.3 45 7.2 93 93 S 3 6 30.14 1021 10 16 0.00 0.00
3:53 am 03:53 Clear 46 7.8 44 6.7 93 93 SSW 8 13 30.13 1020 10 16 0.00 0.00
4:53 am 04:53 Clear 46 7.8 44 6.7 93 93 SSW 8 13 30.14 1021 10 16 0.00 0.00
5:53 am 05:53 Clear 44 6.7 42 5.6 93 93 SW 6 9 30.14 1021 10 16 0.00 0.00
6:53 am 06:53 Clear 44 6.7 41 5 89 89 SSW 7 11 30.15 1021 10 16 0.00 0.00
7:53 am 07:53 Sunny 45 7.2 43 6.1 93 93 SSW 7 11 30.16 1022 10 16 0.00 0.00
8:53 am 08:53 Sunny 54 12.2 48 8.9 80 80 SSW 12 19 30.14 1021 10 16 0.00 0.00
9:53 am 09:53 Sunny 60 15.6 46 7.8 60 60 SW 14 22 30.14 1021 10 16 0.00 0.00
10:53 am 10:53 Sunny 64 17.8 46 7.8 52 52 SW 13 20 30.13 1020 10 16 0.00 0.00
11:53 am 11:53 Sunny 68 20 46 7.8 45 45 SW 14 22 30.12 1020 10 16 0.00 0.00
12:53 pm 12:53 Sunny 72 22.2 45 7.2 38 38 W 10 17 30.11 1020 10 16 0.00 0.00
1:53 pm 13:53 Sunny 73 22.8 43 6.1 34 34 WSW 5 7 30.10 1019 10 16 0.00 0.00
2:53 pm 14:53 Sunny 74 23.3 42 5.6 32 32 VRB 6 9 30.09 1019 10 16 0.00 0.00
3:53 pm 15:53 Sunny 75 23.9 42 5.6 31 31 W 5 7 30.09 1019 10 16 0.00 0.00
4:53 pm 16:53 Sunny 75 23.9 42 5.6 31 31 S 7 11 30.09 1019 10 16 0.00 0.00
5:53 pm 17:53 Sunny 72 22.2 42 5.6 34 34 SW 5 7 30.11 1020 10 16 0.00 0.00
6:53 pm 18:53 Sunny 65 18.3 43 6.1 45 45 WSW 3 6 30.12 1020 10 16 0.00 0.00
7:53 pm 19:53 Clear 61 16.1 43 6.1 51 51 Calm 30.14 1021 10 16 0.00 0.00
8:53 pm 20:53 Clear 58 14.4 43 6.1 57 57 Calm 30.14 1021 10 16 0.00 0.00
9:53 pm 21:53 Clear 56 13.3 44 6.7 64 64 S 6 9 30.14 1021 10 16 0.00 0.00
10:53 pm 22:53 Clear 53 11.7 43 6.1 68 68 S 9 15 30.14 1021 10 16 0.00 0.00
11:53 pm 23:53 Clear 49 9.4 43 6.1 80 80 WSW 5 7 30.15 1021 10 16 0.00 0.00

Powered by AerisWeather